Satellite: INMARSAT 3-F1
Catalog number: 23839
Epoch time:      103023.73585080
Element set:     855 
Inclination:        0.0569 deg
RA of node:        17.6484 deg
Eccentricity:    0.0007259
Arg of perigee:   300.1921 deg
Mean anomaly:     133.6257 deg
Mean motion:    1.00275324 rev/day
Decay rate:    1.8999E-007 rev/day^2
Epoch rev:            2495
Checksum:              304

Satellite: ASTRA 1F
Catalog number: 23842
Epoch time:      103023.00000000
Element set:     557 
Inclination:        0.0122 deg
RA of node:       319.8851 deg
Eccentricity:    0.0002995
Arg of perigee:    65.1991 deg
Mean anomaly:     116.0362 deg
Mean motion:    1.00273184 rev/day
Decay rate:    1.2399E-006 rev/day^2
Epoch rev:            2485
Checksum:              244

Satellite: JAS 2
Catalog number: 24278
Epoch time:      103023.87844187
Element set:     555 
Inclination:       98.5303 deg
RA of node:       178.5893 deg
Eccentricity:    0.0350118
Arg of perigee:   283.1952 deg
Mean anomaly:      73.0362 deg
Mean motion:   13.52870086 rev/day
Decay rate:    1.8000E-007 rev/day^2
Epoch rev:           31783
Checksum:              318

Satellite: UNAMSAT
Catalog number: 24305
Epoch time:      103022.82480179
Element set:     665 
Inclination:       82.9353 deg
RA of node:       282.5627 deg
Eccentricity:    0.0028609
Arg of perigee:   279.1908 deg
Mean anomaly:      80.6001 deg
Mean motion:   13.73448160 rev/day
Decay rate:    2.0499E-006 rev/day^2
Epoch rev:           31981
Checksum:              312

Satellite: INMARSAT 3-F2
Catalog number: 24307
Epoch time:      103024.00415510
Element set:     74 
Inclination:        0.0599 deg
RA of node:        14.0277 deg
Eccentricity:    0.0004713
Arg of perigee:   288.3863 deg
Mean anomaly:     166.4505 deg
Mean motion:    1.00270937 rev/day
Decay rate:   -1.2100E-006 rev/day^2
Epoch rev:            2336
Checksum:              245

Satellite: HOT BIRD 2
Catalog number: 24665
Epoch time:      103013.80550721
Element set:     339 
Inclination:        0.0284 deg
RA of node:       278.7326 deg
Eccentricity:    0.0008090
Arg of perigee:    44.5257 deg
Mean anomaly:      92.5403 deg
Mean motion:    1.00273403 rev/day
Decay rate:    1.0700E-006 rev/day^2
Epoch rev:            2290
Checksum:              247

Satellite: INMARSAT 3-F3
Catalog number: 24674
Epoch time:      103023.23724163
Element set:     974 
Inclination:        0.0475 deg
RA of node:       312.8437 deg
Eccentricity:    0.0004623
Arg of perigee:   350.6894 deg
Mean anomaly:      82.0992 deg
Mean motion:    1.00271748 rev/day
Decay rate:    4.3000E-007 rev/day^2
Epoch rev:            2232
Checksum:              272

Satellite: GOES 10
Catalog number: 24786
Epoch time:      103023.24739429
Element set:     516 
Inclination:        0.0740 deg
RA of node:       109.2748 deg
Eccentricity:    0.0003244
Arg of perigee:   212.8238 deg
Mean anomaly:     114.2464 deg
Mean motion:    1.00283210 rev/day
Decay rate:    9.0999E-007 rev/day^2
Epoch rev:            2107
Checksum:              270

Satellite: INMARSAT 3-F4
Catalog number: 24819
Epoch time:      103023.26740192
Element set:     868 
Inclination:        0.0474 deg
RA of node:       296.7436 deg
Eccentricity:    0.0003868
Arg of perigee:    17.8832 deg
Mean anomaly:     209.8469 deg
Mean motion:    1.00270978 rev/day
Decay rate:   -2.8199E-006 rev/day^2
Epoch rev:            2074
Checksum:              329

Satellite: FENGYUN 2A
Catalog number: 24834
Epoch time:      103023.77632895
Element set:     947 
Inclination:        2.5093 deg
RA of node:        88.7371 deg
Eccentricity:    0.0002369
Arg of perigee:   233.7830 deg
Mean anomaly:     165.5253 deg
Mean motion:    1.00262568 rev/day
Decay rate:   -1.8900E-006 rev/day^2
Epoch rev:            2058
Checksum:              303

Satellite: HOT BIRD 3
Catalog number: 24931
Epoch time:      103023.22766377
Element set:     421 
Inclination:        0.0604 deg
RA of node:       227.5595 deg
Eccentricity:    0.0010036
Arg of perigee:    81.3762 deg
Mean anomaly:     268.1866 deg
Mean motion:    1.00274291 rev/day
Decay rate:    9.9999E-009 rev/day^2
Epoch rev:            1980
Checksum:              302

Satellite: METEOSAT 7
Catalog number: 24932
Epoch time:      103023.78770256
Element set:     235 
Inclination:        0.1530 deg
RA of node:        49.8777 deg
Eccentricity:    0.0001304
Arg of perigee:   234.0145 deg
Mean anomaly:     122.3822 deg
Mean motion:    1.00274991 rev/day
Decay rate:   -9.9999E-009 rev/day^2
Epoch rev:            1976
Checksum:              305

Satellite: ASTRA 1G
Catalog number: 25071
Epoch time:      103023.00000000
Element set:     388 
Inclination:        0.0122 deg
RA of node:       319.8851 deg
Eccentricity:    0.0002995
Arg of perigee:    65.1991 deg
Mean anomaly:     116.0322 deg
Mean motion:    1.00273184 rev/day
Decay rate:    1.2399E-006 rev/day^2
Epoch rev:            1887
Checksum:              243

Satellite: INMARSAT 3-F5
Catalog number: 25153
Epoch time:      103022.21636575
Element set:     835 
Inclination:        0.4555 deg
RA of node:       355.6404 deg
Eccentricity:    0.0005465
Arg of perigee:   316.5639 deg
Mean anomaly:     271.8209 deg
Mean motion:    1.00271118 rev/day
Decay rate:    1.4500E-006 rev/day^2
Epoch rev:            1822
Checksum:              377

Satellite: HOT BIRD 4
Catalog number: 25237
Epoch time:      103013.80550721
Element set:     325 
Inclination:        0.0242 deg
RA of node:       116.4838 deg
Eccentricity:    0.0007929
Arg of perigee:   193.6371 deg
Mean anomaly:     105.7449 deg
Mean motion:    1.00276095 rev/day
Decay rate:    1.0700E-006 rev/day^2
Epoch rev:            1818
Checksum:              265

Satellite: NOAA 15
Catalog number: 25338
Epoch time:      103024.16674720
Element set:     980 
Inclination:       98.5503 deg
RA of node:        47.0046 deg
Eccentricity:    0.0011155
Arg of perigee:    34.6099 deg
Mean anomaly:     325.5804 deg
Mean motion:   14.24233492 rev/day
Decay rate:    2.5399E-006 rev/day^2
Epoch rev:           24418
Checksum:              303

Satellite: RESURS O1-N4
Catalog number: 25394
Epoch time:      103024.54923878
Element set:     431 
Inclination:       98.6364 deg
RA of node:       102.9361 deg
Eccentricity:    0.0001554
Arg of perigee:   150.1500 deg
Mean anomaly:     209.9768 deg
Mean motion:   14.23868927 rev/day
Decay rate:    2.0800E-006 rev/day^2
Epoch rev:           23597
Checksum:              319

Satellite: TMSAT
Catalog number: 25396
Epoch time:      103024.23186807
Element set:     817 
Inclination:       98.6308 deg
RA of node:       101.8278 deg
Eccentricity:    0.0002484
Arg of perigee:   185.6445 deg
Mean anomaly:     174.4706 deg
Mean motion:   14.23503229 rev/day
Decay rate:   -4.3000E-007 rev/day^2
Epoch rev:           23592
Checksum:              302

Satellite: TECHSAT 1B
Catalog number: 25397
Epoch time:      103022.97816413
Element set:     100 
Inclination:       98.6273 deg
RA of node:        99.5151 deg
Eccentricity:    0.0000633
Arg of perigee:   186.8121 deg
Mean anomaly:     173.3049 deg
Mean motion:   14.22953332 rev/day
Decay rate:    7.3000E-007 rev/day^2
Epoch rev:           23571
Checksum:              400

Satellite: ASTRA 2A
Catalog number: 25462
Epoch time:      103023.69277567
Element set:     529 
Inclination:        0.0332 deg
RA of node:        23.2945 deg
Eccentricity:    0.0014243
Arg of perigee:   166.1651 deg
Mean anomaly:     210.9165 deg
Mean motion:    1.00270553 rev/day
Decay rate:    9.9999E-009 rev/day^2
Epoch rev:            1618
Checksum:              292

Satellite: EUTELSAT W2
Catalog number: 25491
Epoch time:      103023.78848381
Element set:     568 
Inclination:        0.0296 deg
RA of node:       110.9551 deg
Eccentricity:    0.0004334
Arg of perigee:   197.5648 deg
Mean anomaly:     113.9961 deg
Mean motion:    1.00272682 rev/day
Decay rate:    1.0700E-006 rev/day^2
Epoch rev:            1579
Checksum:              400

Satellite: HOT BIRD 5
Catalog number: 25495
Epoch time:      103024.00223959
Element set:     494 
Inclination:        0.0202 deg
RA of node:       256.5555 deg
Eccentricity:    0.0004157
Arg of perigee:    52.8082 deg
Mean anomaly:     207.4319 deg
Mean motion:    1.00269503 rev/day
Decay rate:    1.5900E-006 rev/day^2
Epoch rev:            1576
Checksum:              266

Satellite: SEDSAT 1
Catalog number: 25509
Epoch time:      103024.05522588
Element set:     763 
Inclination:       31.4307 deg
RA of node:       297.2419 deg
Eccentricity:    0.0357775
Arg of perigee:    80.0387 deg
Mean anomaly:     284.0406 deg
Mean motion:   14.27393783 rev/day
Decay rate:    1.2190E-005 rev/day^2
Epoch rev:           22166
Checksum:              307

Satellite: PAN SAT
Catalog number: 25520
Epoch time:      103024.11150136
Element set:     632 
Inclination:       28.4572 deg
RA of node:        33.3810 deg
Eccentricity:    0.0006095
Arg of perigee:    77.4207 deg
Mean anomaly:     282.7084 deg
Mean motion:   15.13752036 rev/day
Decay rate:    3.0610E-005 rev/day^2
Epoch rev:           23372
Checksum:              250

Satellite: ISS (ZARYA)
Catalog number: 25544
Epoch time:      103024.47622044
Element set:     617 
Inclination:       51.6364 deg
RA of node:        22.1300 deg
Eccentricity:    0.0005610
Arg of perigee:    70.2827 deg
Mean anomaly:      67.5166 deg
Mean motion:   15.59657793 rev/day
Decay rate:    6.9360E-004 rev/day^2
Epoch rev:           23858
Checksum:              295

